Omak, WA

1:34 PM PST on December 14, 2017 (GMT -0800)
Omak

Weather History for KOMK - May, 2014

Change the Weather History Date:

Sunday, May 11, 2014

  Actual Average Record
Temperature  
Mean Temperature 56 °F 57 °F  
Max Temperature 71 °F 71 °F 92 °F (1949)
Min Temperature 41 °F 43 °F 27 °F (1959)
Degree Days  
Heating Degree Days 9 9  
Month to date heating degree days 103 112  
Since 1 July heating degree days 6306 6151  
Cooling Degree Days 0 1  
Month to date cooling degree days 0 1  
Year to date cooling degree days 0 2  
Growing Degree Days 8 (Base 50)    
Moisture  
Dew Point 32 °F    
Average Humidity 47    
Maximum Humidity 76    
Minimum Humidity 18    
Precipitation  
Precipitation 0.00 in 0.04 in 1.02 in (1975)
Month to date precipitation 0.26 0.49  
Year to date precipitation 4.42 6.02  
Sea Level Pressure  
Sea Level Pressure 30.25 in    
Wind  
Wind Speed 10 mph (NNW)    
Max Wind Speed 17 mph    
Max Gust Speed 22 mph    
Visibility 10 miles    
Events      
T = Trace of Precipitation, MM = Missing Value Source: NWS Daily Summary

Daily Weather History Graph

Daily Weather History Graph

Search for Another Location

Airport or City:

Trip Planner

Search our weather history database for the weather conditions in past years. The results will help you decide how hot, cold, wet, or windy it might be!

Date:

Astronomy

May. 11, 2014 Rise Set
Actual Time 5:23 AM PDT 8:26 PM PDT
Civil Twilight 4:46 AM PDT 9:03 PM PDT
Nautical Twilight 3:58 AM PDT 9:51 PM PDT
Astronomical Twilight 2:59 AM PDT 10:51 PM PDT
Moon 5:13 PM PDT (5/11) 3:48 AM PDT (5/11)
Length of Visible Light 16h 17m
Length of Day
15h 03m
Waxing Gibbous, 90% of the Moon is Illuminated
May 11
Waxing Gibbous
May 14
Full
May 21
Last Quarter
May 28
New
Jun 5
First Quarter

Hourly Weather History & Observations

Time (PDT) Temp. Windchill Dew Point Humidity Pressure Visibility Wind Dir Wind Speed Gust Speed Precip Events Conditions
12:53 AM 46.9 °F - 37.0 °F 68% 30.15 in 10.0 mi WNW 8.1 mph - N/A   Clear
1:53 AM 45.0 °F 41.8 °F 36.0 °F 71% 30.17 in 10.0 mi WNW 5.8 mph - N/A   Clear
2:53 AM 45.0 °F 40.1 °F 37.9 °F 76% 30.19 in 10.0 mi North 9.2 mph - N/A   Clear
3:53 AM 48.0 °F - 37.9 °F 68% 30.20 in 10.0 mi North 10.4 mph - N/A   Clear
4:53 AM 48.0 °F - 37.9 °F 68% 30.22 in 10.0 mi North 13.8 mph - N/A   Clear
5:53 AM 46.9 °F - 37.9 °F 71% 30.24 in 10.0 mi North 11.5 mph - N/A   Clear
6:53 AM 48.9 °F - 37.9 °F 66% 30.27 in 10.0 mi North 11.5 mph - N/A   Clear
7:53 AM 53.1 °F - 39.0 °F 59% 30.29 in 10.0 mi North 15.0 mph - N/A   Clear
8:53 AM 55.9 °F - 37.9 °F 51% 30.30 in 10.0 mi North 13.8 mph - N/A   Clear
9:53 AM 60.1 °F - 35.1 °F 39% 30.29 in 10.0 mi NNW 13.8 mph - N/A   Clear
11:53 AM 66.0 °F - 30.9 °F 27% 30.28 in 10.0 mi North 13.8 mph - N/A   Clear
12:53 PM 66.9 °F - 26.1 °F 21% 30.27 in 10.0 mi North 11.5 mph 21.9 mph N/A   Clear
1:53 PM 68.0 °F - 26.1 °F 21% 30.26 in 10.0 mi NW 11.5 mph 20.7 mph N/A   Clear
2:53 PM 70.0 °F - 26.1 °F 19% 30.25 in 10.0 mi NNE 12.7 mph 19.6 mph N/A   Clear
3:53 PM 71.1 °F - 26.1 °F 19% 30.24 in 10.0 mi NNE 8.1 mph - N/A   Clear
4:53 PM 70.0 °F - 26.1 °F 19% 30.23 in 10.0 mi NNW 6.9 mph - N/A   Clear
5:53 PM 70.0 °F - 25.0 °F 18% 30.22 in 10.0 mi North 8.1 mph - N/A   Clear
6:53 PM 68.0 °F - 28.0 °F 22% 30.22 in 10.0 mi NNW 8.1 mph - N/A   Clear
7:53 PM 59.0 °F - 33.1 °F 38% 30.25 in 10.0 mi NW 8.1 mph - N/A   Clear
9:53 PM 52.0 °F - 28.9 °F 41% 30.29 in 10.0 mi WNW 8.1 mph - N/A   Clear
10:53 PM 51.1 °F - 30.0 °F 44% 30.31 in 10.0 mi West 5.8 mph - N/A   Clear
11:53 PM 48.0 °F - 28.9 °F 48% 30.33 in 10.0 mi West 5.8 mph - N/A   Clear